Terminal Aerodrome Forecast
Issued by NWS

Current Version | Previous Version | Text Only | Print | Product List | Glossary Off
Versions: 1 2 3 4 5 6 7 8 9 10 11 12 13 14 15 16 17 18 19 20 21 22 23 24 25 26 27 28 29 30 31 32 33 34 35 36 37 38 39 40 41 42 43 44 45 46 47 48 49 50

000
FTUS41 KRNK 212337
TAFLWB
TAF
KLWB 212337Z 2200/2224 29007KT P6SM VCSH SCT020 BKN045 OVC070
     FM220100 29007KT P6SM SCT045 BKN070
     FM220400 29006KT P6SM OVC025
     FM220800 29005KT P6SM OVC018
     FM221500 30007KT P6SM OVC023
     FM222000 31005KT P6SM BKN030=

USA.gov is the U.S. government's official web portal to all federal, state and local government web resources and services.